[[{"header":{"parameterUnit":"m.s-1","parameterCategory":1,"la1":30.2991,"la2":30.254,"lo1":-89.0895,"lo2":-89.0444,"dy":0.0017,"dx":0.0017,"nx":28,"ny":28,"refTime":"2025-02-07T09:00:00:Z","depth":0,"parameterNumber":2,"parameterNumberName":"U-component_of_WINDS"},"data":[0,0,0,0,0,0,0,0,0,0,0,0,0,0,0,0,0,0,0,0,0,0,0,0,0,0,0,0,0,0,0,0,0,0,0,0,0,0,0,0,0,0,0,0,0,0,0,0,0,0,0,0,0,0,0,0,0,0,0.5548,0.5549,0,0.5612,0.5613,0.5614,0.5598,0.5596,0.5595,0.5594,0.5661,0.5664,0.5667,0,0,0,0,0,0,0,0,0,0,0,0,0,0.5412,0.5414,0.5548,0.5549,0.5549,0.5612,0.5613,0.5614,0.5598,0.5596,0.5595,0.5593,0.566,0.5663,0.5667,0,0,0,0,0,0,0,0,0,0,0,0,0,0.5473,0.5415,0.5548,0.5549,0.555,0.5612,0.5613,0.5614,0.5598,0.5596,0.5594,0.5593,0.5659,0.5663,0.5667,0.5733,0,0,0.5681,0.5683,0,0,0,0,0,0,0,0,0.5469,0.5478,0.5548,0.5549,0.555,0.5595,0.559,0.5654,0.5599,0.558,0.5594,0.5592,0.5641,0.5646,0.5663,0.5736,0.5739,0.5681,0.5684,0.5686,0.5687,0,0,0,0,0,0,0,0.5465,0.5475,0.5573,0.5549,0.555,0.5547,0.5553,0.5602,0.562,0.5581,0.558,0.5588,0.5641,0.5658,0.5664,0.574,0.5681,0.5685,0.5688,0.569,0.5871,0.5873,0,0,0,0,0,0,0.546,0.5472,0.5571,0.5575,0.5504,0.5551,0.5558,0.5582,0.5619,0.5623,0.559,0.5587,0.5652,0.5659,0.5666,0.5746,0.5686,0.569,0.5693,0.5868,0.5871,0.5873,0,0,0,0,0,0,0.5457,0.5469,0.5569,0.5523,0.5536,0.5555,0.5583,0.5585,0.5602,0.5626,0.5629,0.5604,0.5651,0.566,0.5717,0.5748,0.5692,0.5696,0.5866,0.5869,0.5872,0.5906,0,0,0,0,0,0,0.5453,0.5468,0.5493,0.5524,0.5538,0.5618,0.5584,0.5587,0.561,0.5607,0.564,0.5644,0.565,0.571,0.5721,0.5754,0.57,0.5863,0.5867,0.5871,0.5902,0.591,0.5917,0,0,0,0,0,0.5448,0.55,0.5494,0.5506,0.5569,0.5619,0.5628,0.5633,0.5613,0.5638,0.5653,0.5643,0.5743,0.5716,0.5728,0.5763,0.5861,0.5866,0.5871,0.5899,0.5909,0.5917,0,0,0,0,0,0,0.5472,0.5504,0.5498,0.5561,0.5588,0.5617,0.5649,0.5643,0.5676,0.5672,0.5677,0.5685,0.5743,0.5758,0.5727,0.5828,0.5799,0.5807,0.5816,0.5826,0.5833,0.5829,0.5703,0,0,0,0,0,0.5485,0.5523,0.5548,0.5601,0.5615,0.563,0.5651,0.5653,0.5681,0.5693,0.5712,0.5739,0.5777,0.5802,0.5838,0.5904,0.5911,0.5933,0.5941,0.5947,0.5954,0.5991,0.6001,0.5889,0.5889,0.5889,0,0,0.5511,0.5533,0.5557,0.5606,0.5627,0.5667,0.5639,0.5682,0.5712,0.5699,0.5754,0.5769,0.58,0.5862,0.589,0.5876,0.5986,0.5953,0.5957,0.5961,0.5997,0.6008,0.6017,0.5893,0.5892,0.5891,0,0,0.558,0.5599,0.5647,0.5668,0.57,0.571,0.5721,0.5751,0.5761,0.5815,0.5807,0.5842,0.5907,0.593,0.595,0.6027,0.602,0.6039,0.6077,0.6114,0.6123,0.6131,0.616,0.617,0.6045,0.6045,0.6045,0,0.5609,0.5668,0.5671,0.5716,0.5738,0.5728,0.5776,0.5797,0.5839,0.5855,0.5839,0.592,0.594,0.6008,0.6027,0.6043,0.6057,0.6036,0.6121,0.6129,0.6136,0.6164,0.6175,0.6047,0.6047,0.6047,0.6047,0,0.5703,0.5744,0.5778,0.5819,0.5845,0.5891,0.5902,0.5928,0.5927,0.5939,0.5995,0.6019,0.606,0.6076,0.6075,0.6144,0.6134,0.6119,0.6091,0.6149,0.6176,0.6186,0.6051,0.605,0.6049,0.6049,0,0,0.5789,0.5832,0.5844,0.5864,0.5898,0.593,0.5975,0.6015,0.6038,0.6067,0.6107,0.6161,0.6148,0.6171,0.6172,0.6204,0.6266,0.6185,0.6186,0.6201,0.6344,0.6357,0.6369,0.626,0.6262,0.6264,0.6342,0,0.5862,0.5942,0.5947,0.602,0.6059,0.605,0.6089,0.6115,0.6127,0.6161,0.6174,0.6214,0.6192,0.6206,0.6237,0.6252,0.6295,0.6246,0.6298,0.63,0.6292,0.6383,0.6396,0.6469,0.6352,0.6354,0.6355,0,0.5958,0.5991,0.6068,0.6098,0.6114,0.615,0.6188,0.622,0.6249,0.6256,0.6281,0.6279,0.6326,0.6294,0.636,0.6326,0.6347,0.6358,0.6361,0.6368,0.6332,0.6393,0.6492,0.6504,0.6371,0.637,0.6369,0,0.6016,0.6079,0.6133,0.615,0.6185,0.6211,0.6227,0.6254,0.6278,0.6311,0.6327,0.6364,0.6385,0.6414,0.6422,0.6398,0.6488,0.6457,0.6496,0.6496,0.6517,0.6516,0.6622,0.6527,0.6527,0.6527,0.6527,0,0.6098,0.6146,0.616,0.6194,0.6247,0.6252,0.6305,0.6319,0.6343,0.638,0.6374,0.6409,0.6416,0.6452,0.6459,0.6513,0.6522,0.6529,0.653,0.6531,0.653,0.6546,0.6542,0.653,0.6529,0.6529,0.6528,0,0.6172,0.6183,0.6242,0.6271,0.628,0.6318,0.6343,0.6376,0.6386,0.6433,0.6444,0.6461,0.6503,0.6514,0.6564,0.6568,0.6633,0.6628,0.6623,0.6624,0.6663,0.666,0.6785,0.6802,0.6694,0.6695,0.6696,0,0.6224,0.6261,0.6294,0.6319,0.6336,0.6375,0.64,0.6406,0.6432,0.6468,0.6496,0.6538,0.6572,0.664,0.6657,0.6695,0.6693,0.6734,0.6699,0.6698,0.6696,0.6694,0.6699,0.6741,0.6743,0.6744,0.6744,0,0.6317,0.6321,0.6357,0.6395,0.6425,0.6455,0.6484,0.6504,0.6514,0.6543,0.6587,0.6613,0.6664,0.6706,0.6745,0.6762,0.6756,0.6755,0.6766,0.6768,0.6764,0.6769,0.6644,0.6753,0.6752,0.6751,0.6751,0.675,0.6383,0.6416,0.6445,0.6485,0.6508,0.6535,0.6567,0.6582,0.6618,0.6661,0.6662,0.671,0.6738,0.679,0.6809,0.6846,0.6834,0.685,0.6854,0.6859,0.6863,0.6757,0.6853,0.6853,0.6853,0.6853,0.6852,0,0.6477,0.6495,0.6532,0.6573,0.6605,0.6595,0.6627,0.6655,0.6697,0.6724,0.6757,0.6808,0.6848,0.6868,0.6908,0.6935,0.6933,0.6945,0.6944,0.6949,0.6871,0.6858,0.6946,0.6946,0.6946,0.6946,0.6946,0.6946,0.653,0.6585,0.6593,0.6659,0.6677,0.6724,0.6743,0.6768,0.679,0.6847,0.6881,0.6893,0.6918,0.696,0.6997,0.7002,0.7017,0.7032,0.7035,0.6963,0.6954,0.6945,0.6933,0.7035,0.7035,0.711,0.7111,0.7111]},{"header":{"parameterUnit":"m.s-1","parameterCategory":1,"la1":30.2991,"la2":30.254,"lo1":-89.0895,"lo2":-89.0444,"dy":0.0017,"dx":0.0017,"nx":28,"ny":28,"refTime":"2025-02-07T09:00:00:Z","depth":0,"parameterNumber":3,"parameterNumberName":"V-component_of_WINDS"},"data":[0,0,0,0,0,0,0,0,0,0,0,0,0,0,0,0,0,0,0,0,0,0,0,0,0,0,0,0,0,0,0,0,0,0,0,0,0,0,0,0,0,0,0,0,0,0,0,0,0,0,0,0,0,0,0,0,0,0,3.8566,3.8566,0,3.8641,3.8642,3.8643,3.8637,3.8636,3.8635,3.8634,3.8708,3.8711,3.8714,0,0,0,0,0,0,0,0,0,0,0,0,0,3.8412,3.8415,3.8566,3.8567,3.8568,3.8641,3.8642,3.8643,3.8638,3.8636,3.8635,3.8634,3.8707,3.8711,3.8714,0,0,0,0,0,0,0,0,0,0,0,0,0,3.8482,3.8416,3.8565,3.8574,3.8575,3.8641,3.8642,3.8643,3.8638,3.8636,3.8635,3.8633,3.8706,3.871,3.8715,3.8776,0,0,3.8729,3.873,0,0,0,0,0,0,0,0,3.8479,3.8488,3.8572,3.8573,3.8575,3.8628,3.8615,3.8688,3.8638,3.8614,3.8634,3.8632,3.8683,3.8689,3.8707,3.878,3.8783,3.8729,3.8732,3.8734,3.8735,0,0,0,0,0,0,0,3.8474,3.8485,3.8595,3.8573,3.8575,3.8572,3.858,3.8629,3.8657,3.8616,3.8616,3.8625,3.8683,3.8702,3.8708,3.8784,3.8729,3.8733,3.8736,3.8737,3.8911,3.8913,0,0,0,0,0,0,3.8467,3.8481,3.8593,3.8598,3.8522,3.8576,3.8585,3.8613,3.8656,3.8661,3.8626,3.8624,3.8695,3.8703,3.8711,3.8787,3.8734,3.8738,3.874,3.8909,3.8911,3.8913,0,0,0,0,0,0,3.8464,3.8478,3.859,3.8539,3.8553,3.8581,3.8612,3.8615,3.8634,3.8664,3.8669,3.8641,3.8694,3.8705,3.876,3.8789,3.874,3.8744,3.8907,3.891,3.8912,3.8938,0,0,0,0,0,0,3.846,3.8476,3.8501,3.854,3.8556,3.8639,3.8613,3.8618,3.8643,3.8641,3.8679,3.8684,3.8694,3.8754,3.8765,3.8794,3.8747,3.8904,3.8908,3.8911,3.8935,3.8941,3.8947,0,0,0,0,0,3.8454,3.8504,3.8502,3.8516,3.8588,3.8641,3.865,3.8662,3.8645,3.8669,3.8688,3.8683,3.8784,3.8759,3.8772,3.8803,3.8903,3.8907,3.8911,3.8932,3.894,3.8947,0,0,0,0,0,0,3.8467,3.851,3.8508,3.8572,3.8603,3.864,3.8672,3.867,3.8706,3.8702,3.8714,3.8723,3.8779,3.8796,3.8768,3.8865,3.8841,3.8848,3.8852,3.886,3.8866,3.8861,3.8751,0,0,0,0,0,3.8477,3.8519,3.8553,3.8606,3.8622,3.8644,3.8667,3.8674,3.8706,3.8719,3.8742,3.8772,3.8811,3.8836,3.8873,3.8936,3.8945,3.8964,3.897,3.8975,3.8981,3.9016,3.9026,3.8927,3.8927,3.8927,0,0,3.8499,3.8527,3.8553,3.8609,3.8634,3.8676,3.8655,3.8699,3.873,3.8725,3.878,3.8797,3.8832,3.8892,3.8919,3.8908,3.901,3.898,3.8984,3.8988,3.9022,3.9031,3.9039,3.893,3.893,3.8929,0,0,3.8561,3.8586,3.8634,3.8659,3.8697,3.8711,3.8723,3.876,3.8772,3.8827,3.8824,3.8859,3.8926,3.8951,3.8972,3.9042,3.9038,3.9053,3.9086,3.912,3.9128,3.9135,3.9161,3.917,3.9059,3.9059,3.9059,0,3.8583,3.8646,3.8658,3.8703,3.8728,3.8726,3.8774,3.8798,3.8845,3.8862,3.8849,3.8932,3.8955,3.9021,3.9038,3.9055,3.9068,3.905,3.9126,3.9133,3.914,3.9165,3.9174,3.9061,3.9061,3.906,3.906,0,3.8672,3.8716,3.8749,3.8797,3.8826,3.8872,3.889,3.8916,3.892,3.8935,3.8991,3.9018,3.9061,3.9076,3.908,3.9143,3.9135,3.9124,3.91,3.9151,3.9174,3.9184,3.9063,3.9063,3.9062,3.9062,0,0,3.8745,3.8799,3.8811,3.8833,3.8874,3.8908,3.8953,3.8996,3.902,3.9052,3.909,3.9146,3.9136,3.916,3.9165,3.9195,3.925,3.918,3.9181,3.9193,3.9322,3.9332,3.9343,3.9247,3.9248,3.925,3.932,0,3.8812,3.8895,3.8906,3.8979,3.902,3.9018,3.9057,3.9086,3.9101,3.9137,3.9152,3.9192,3.9175,3.919,3.9219,3.9237,3.9276,3.9232,3.9283,3.9284,3.9276,3.9355,3.9366,3.9431,3.9329,3.933,3.9332,0,3.8902,3.8938,3.9016,3.9052,3.9069,3.9105,3.9145,3.9179,3.9211,3.922,3.9247,3.9249,3.9295,3.9267,3.9331,3.9301,3.9321,3.9333,3.9336,3.9343,3.9313,3.9365,3.9451,3.9462,3.9346,3.9345,3.9344,0,3.895,3.9017,3.9073,3.9091,3.9134,3.9159,3.9178,3.9209,3.9234,3.9268,3.9285,3.9323,3.9345,3.9374,3.9386,3.9365,3.9449,3.9422,3.9457,3.9457,3.9477,3.9476,3.9569,3.9487,3.9487,3.9487,3.9487,0,3.9024,3.9072,3.9095,3.9129,3.9182,3.9194,3.9245,3.9263,3.929,3.9327,3.9326,3.936,3.9372,3.9408,3.9417,3.9469,3.9478,3.9486,3.9488,3.9488,3.9487,3.9503,3.9499,3.949,3.9489,3.9489,3.9488,0,3.9088,3.9105,3.9165,3.9201,3.9211,3.9249,3.9279,3.9311,3.9325,3.9372,3.9383,3.9405,3.9447,3.9461,3.9511,3.9517,3.9578,3.9575,3.9568,3.9569,3.9603,3.9601,3.9712,3.9728,3.9634,3.9634,3.9635,0,3.9136,3.9173,3.9212,3.9238,3.9258,3.9298,3.9324,3.9336,3.9362,3.9402,3.9429,3.9471,3.9506,3.9573,3.9593,3.9631,3.963,3.9666,3.9636,3.9634,3.9633,3.9631,3.9635,3.9673,3.9674,3.9675,3.9675,0,3.9219,3.9225,3.9264,3.9305,3.9336,3.9369,3.94,3.942,3.9436,3.9466,3.951,3.9537,3.9589,3.9631,3.967,3.9687,3.9684,3.9684,3.9695,3.9695,3.9691,3.9695,3.9585,3.9682,3.9682,3.9681,3.9681,3.968,3.9277,3.931,3.9344,3.9386,3.9411,3.944,3.9473,3.9491,3.9528,3.9573,3.9576,3.9624,3.9654,3.9706,3.9726,3.9762,3.9752,3.9767,3.9771,3.9775,3.9779,3.9683,3.9769,3.9769,3.9769,3.9769,3.9768,0,3.9362,3.9383,3.9422,3.9467,3.95,3.9494,3.9528,3.9556,3.9599,3.9627,3.9662,3.9712,3.9752,3.9774,3.9814,3.9839,3.9838,3.9849,3.9848,3.9853,3.9785,3.9773,3.9849,3.9849,3.9849,3.9849,3.9849,3.9849,3.941,3.9466,3.9477,3.9544,3.9565,3.9613,3.9633,3.9659,3.9683,3.9739,3.9773,3.9787,3.9814,3.9855,3.9892,3.9897,3.9912,3.9925,3.9929,3.9866,3.9857,3.985,3.9838,3.9927,3.9927,3.9994,3.9995,3.9995]}]]